Location: Newark
(21.1200°N, 73.4000°E)
Time: 18:33:12
(UTC+00:00)

Explorer 11/Cluster Stage 4 - Pass Details

Date: 28 January 2020
Orbit: 467 x 1259 km, 28.8° (Epoch: 26 February)

Event Time Altitude Azimuth Distance (km) Brightness Sun altitude
Rises 07:50:48 0° 263° (W) 4,026 10.4 49.8°
Reaches altitude 10° 07:53:36 10° 266° (W) 3,132 9.9 49.7°
Maximum altitude 08:01:34 62° 346° (NNW) 1,388 8.2 49.2°
Drops below altitude 10° 08:09:39 10° 66° (ENE) 3,176 9.5 48.7°
Sets 08:12:31 0° 70° (ENE) 4,085 10.0 48.5°
